Cheyenne, WY

9:01 AM MST on February 24, 2017 (GMT -0700)
Cheyenne

Weather History for KCYS - February, 2013

Change the Weather History Date:

Tuesday, February 12, 2013

  Actual Average Record
Temperature  
Mean Temperature 23 °F 29 °F  
Max Temperature 31 °F 40 °F 64 °F (1962)
Min Temperature 14 °F 18 °F -30 °F (1905)
Degree Days  
Heating Degree Days 42 36  
Month to date heating degree days 432 440  
Since 1 July heating degree days 4283 4467  
Cooling Degree Days 0 0  
Month to date cooling degree days 0 0  
Year to date cooling degree days 0 0  
Moisture  
Dew Point 4 °F    
Average Humidity 47    
Maximum Humidity 59    
Minimum Humidity 34    
Precipitation  
Precipitation 0.00 in 0.02 in 0.52 in (1915)
Month to date precipitation 0.19 0.17  
Year to date precipitation 0.43 0.50  
Snow  
Snow 0.00 in 0.20 in 4.30 in (1915)
Month to date snowfall 3.0 3.1  
Since 1 July snowfall 31.8 31.7  
Snow Depth 1.00 in    
Sea Level Pressure  
Sea Level Pressure 30.14 in    
Wind  
Wind Speed 16 mph (NW)    
Max Wind Speed 31 mph    
Max Gust Speed 37 mph    
Visibility 10 miles    
Events      
T = Trace of Precipitation, MM = Missing Value Source: NWS Daily Summary

Daily Weather History Graph

Daily Weather History Graph

Search for Another Location

Airport or City:

Trip Planner

Search our weather history database for the weather conditions in past years. The results will help you decide how hot, cold, wet, or windy it might be!

Date:

Astronomy

Feb. 12, 2013 Rise Set
Actual Time 6:57 AM MST 5:30 PM MST
Civil Twilight 6:28 AM MST 5:58 PM MST
Nautical Twilight 5:56 AM MST 6:30 PM MST
Astronomical Twilight 5:24 AM MST 7:03 PM MST
Moon 7:53 AM MST (2/12) 8:35 PM MST (2/12)
Length of Visible Light 11h 29m
Length of Day
10h 32m
Waxing Crescent, 8% of the Moon is Illuminated
Feb 12
Waxing Crescent
Feb 17
First Quarter
Feb 25
Full
Mar 4
Last Quarter
Mar 11
New

Hourly Weather History & Observations

Time (MST) Temp. Windchill Dew Point Humidity Pressure Visibility Wind Dir Wind Speed Gust Speed Precip Events Conditions
12:53 AM 14.0 °F -3.0 °F -0.9 °F 52% 30.13 in 10.0 mi West 18.4 mph - N/A   Clear
1:53 AM 14.0 °F -2.5 °F -2.0 °F 49% 30.13 in 10.0 mi West 17.3 mph - N/A   Clear
2:53 AM 15.1 °F 1.8 °F -2.0 °F 47% 30.13 in 10.0 mi WNW 11.5 mph - N/A   Clear
3:53 AM 15.1 °F -0.6 °F -2.0 °F 47% 30.13 in 10.0 mi WNW 16.1 mph 24.2 mph N/A   Clear
4:53 AM 15.1 °F -1.1 °F -2.9 °F 45% 30.13 in 10.0 mi WNW 17.3 mph 25.3 mph N/A   Clear
5:53 AM 15.1 °F 0.5 °F -2.9 °F 45% 30.14 in 10.0 mi WNW 13.8 mph - N/A   Clear
6:53 AM 14.0 °F -1.4 °F -2.9 °F 47% 30.16 in 10.0 mi West 15.0 mph - N/A   Clear
7:53 AM 17.1 °F 3.0 °F -2.9 °F 41% 30.19 in 10.0 mi WNW 13.8 mph - N/A   Clear
8:53 AM 21.9 °F 10.4 °F -0.9 °F 37% 30.20 in 10.0 mi NW 11.5 mph 19.6 mph N/A   Clear
9:53 AM 25.0 °F 10.6 °F 1.0 °F 36% 30.20 in 10.0 mi NW 20.7 mph 27.6 mph N/A   Clear
10:53 AM 26.1 °F 12.3 °F 3.9 °F 39% 30.17 in 10.0 mi NNW 19.6 mph 31.1 mph N/A   Clear
11:53 AM 28.0 °F 16.1 °F 3.9 °F 36% 30.14 in 10.0 mi NW 16.1 mph 31.1 mph N/A   Clear
12:53 PM 30.0 °F 18.7 °F 6.1 °F 36% 30.12 in 10.0 mi NW 16.1 mph 28.8 mph N/A   Clear
1:53 PM 30.0 °F 17.5 °F 8.1 °F 40% 30.12 in 10.0 mi NNW 19.6 mph 26.5 mph N/A   Clear
2:53 PM 30.0 °F 18.3 °F 8.1 °F 40% 30.10 in 10.0 mi NNW 17.3 mph 25.3 mph N/A   Clear
3:53 PM 28.9 °F 16.9 °F 9.0 °F 43% 30.12 in 10.0 mi NNW 17.3 mph 21.9 mph N/A   Clear
4:53 PM 25.0 °F 18.1 °F 10.9 °F 55% 30.13 in 10.0 mi NNW 5.8 mph - N/A   Clear
5:53 PM 24.1 °F 12.5 °F 10.9 °F 57% 30.14 in 10.0 mi NNW 12.7 mph - N/A   Partly Cloudy
6:53 PM 23.0 °F 13.1 °F 10.0 °F 58% 30.15 in 10.0 mi NW 9.2 mph 19.6 mph N/A   Overcast
7:53 PM 21.9 °F 9.2 °F 8.1 °F 55% 30.14 in 10.0 mi WNW 13.8 mph 21.9 mph N/A   Mostly Cloudy
8:53 PM 24.1 °F 12.0 °F 7.0 °F 48% 30.11 in 10.0 mi WNW 13.8 mph - N/A   Overcast
9:53 PM 23.0 °F 5.4 °F 7.0 °F 50% 30.09 in 10.0 mi WNW 29.9 mph 36.8 mph N/A   Overcast
10:53 PM 21.9 °F 10.4 °F 7.0 °F 53% 30.12 in 10.0 mi West 11.5 mph - N/A   Partly Cloudy
11:53 PM 24.1 °F 11.5 °F 8.1 °F 51% 30.09 in 10.0 mi WNW 15.0 mph 24.2 mph N/A   Overcast